CAPE
1062 1729 2776 2222 2106 2056 1952 1795 1657 1079 1005 1412 924 624 737 611 1203 1249 1227 926 431 239 133 154 319 560 227 16 0 0 0 0 3 0 0 0 25 6 22 18 28 10 16
947 1229 2838 2493 2075 1972 1851 1895 1965 1289 942 1162 1012 746 801 684 915 1363 1333 874 614 267 209 212 394 500 256 16 0 0 1 6 0 0 0 20 75 25 13 21 13 14 18
1046 958 1951 2796 2299 2267 2206 2145 2056 1493 991 997 1314 946 735 663 605 1112 1395 1146 769 343 263 296 452 410 418 28 0 0 1 0 0 0 0 35 8 38 20 9 34 25 32
1177 1203 1792 2724 2885 2800 2537 2352 2301 1686 1242 1077 1135 1050 823 731 655 1068 1429 1322 918 418 296 383 461 380 378 22 0 0 0 0 0 0 9 10 8 35 10 24 23 25 16
1525 1381 2015 2909 3286 3118 2908 2597 2452 1981 1592 1235 1427 1295 1153 1092 737 690 1199 1492 1105 552 297 360 447 379 314 57 0 0 0 0 0 4 6 13 13 15 6 0 26 30 22
1585 1759 2590 3260 3093 2978 2583 2201 2435 2206 1912 1527 1605 1624 1607 1471 1003 717 984 1638 1289 751 368 294 416 313 249 152 0 2 0 0 0 2 7 9 39 3 17 9 15 23 20
1658 1861 2345 3195 3090 2844 2632 2352 2404 2303 2080 1835 1593 2021 1700 1670 1561 1152 1014 1615 1443 1063 534 309 307 276 214 377 2 0 0 0 0 0 3 13 20 10 6 12 4 16 24
1811 2038 2033 3164 3433 3253 2887 2612 2599 2416 2272 2108 2011 1837 2006 1912 1917 1736 1287 1181 1424 1471 1009 464 275 197 389 650 30 9 0 0 0 1 7 23 9 7 7 15 19 12 19
1893 2098 2183 2264 2774 3269 3359 3069 2655 2472 2474 2254 2298 2238 2114 2094 2242 1915 1937 1457 1326 1610 1378 983 475 243 439 674 104 40 0 0 3 0 7 29 2 8 8 5 9 13 19
2002 2201 2328 2371 2335 2404 2328 2764 2725 2579 2596 2598 2494 2525 2091 2034 2002 1780 1851 1752 1561 1390 1705 1432 1042 500 269 549 472 257 11 0 7 0 41 37 2 1 3 4 9 20 15
1645 2059 2214 2452 2492 2514 2456 2410 2813 2524 2538 2222 1984 2143 2205 1746 1397 1652 1485 1784 1725 1461 1549 1644 1315 1047 810 563 536 635 139 17 8 22 59 23 15 6 5 7 11 12 18
32 11 97 651 1507 2392 2613 2684 2724 2643 2481 2231 1986 1696 1558 1272 1120 1321 1298 1595 1920 1717 1624 1491 1374 1136 998 471 376 666 269 70 45 24 71 83 54 8 8 4 11 11 14
0 0 0 0 106 1223 1752 2244 2828 2843 2320 2179 1963 1878 1697 1424 1293 1478 1517 1654 1347 1712 1446 1292 1381 1300 854 464 449 334 305 166 127 100 72 132 107 11 7 5 3 13 14
0 0 0 0 0 0 233 154 1320 1614 2228 2469 2016 2042 1904 2210 1468 1311 1386 1478 1367 1152 864 1002 1393 1295 1174 780 541 390 237 178 178 145 150 134 153 102 14 10 8 11 12
0 0 0 0 0 0 0 0 0 37 644 1062 1404 2297 2441 1972 1996 1907 1415 1939 1636 1498 1417 1089 1225 1180 1014 798 570 475 341 179 191 193 230 128 128 148 53 47 14 12 17
0 0 0 0 0 0 0 0 0 0 6 149 923 1167 1842 2034 2011 1721 1566 1644 1540 2106 1797 1413 1054 984 960 867 696 443 465 195 263 359 340 160 111 144 93 53 23 20 20
0 0 0 0 0 0 0 0 0 0 19 38 71 169 416 1045 1598 1579 1670 1887 1636 2074 1828 1694 1248 803 706 907 923 725 527 303 437 471 456 236 167 108 139 60 49 50 22
0 0 0 0 0 0 0 0 0 0 0 17 26 56 93 67 86 1155 1454 1376 1886 1995 1942 1925 1169 704 888 785 901 855 598 268 285 565 317 149 135 162 88 100 62 49 32
0 0 0 0 0 0 0 0 0 0 0 0 3 3 20 61 100 137 537 845 958 1424 1542 1488 1371 981 921 904 1168 916 644 458 449 484 224 200 186 80 138 108 26 26 47
0 0 0 0 0 0 0 0 0 0 0 0 0 0 0 0 26 57 160 571 778 959 986 1448 1340 1132 1236 413 516 619 633 569 596 643 439 202 60 27 42 103 70 79 25
0 0 0 0 0 0 0 0 0 0 0 0 0 0 0 0 42 33 51 154 270 1064 1094 979 716 843 750 776 205 78 37 209 403 586 507 66 1 32 65 127 112 65 34
0 0 0 0 0 0 0 0 0 0 0 0 0 0 0 0 7 77 157 90 153 387 814 931 812 690 599 508 564 64 9 4 2 4 10 8 26 44 62 78 92 29 26
0 0 0 0 0 0 0 0 0 0 0 0 0 0 0 0 1 91 165 287 165 244 515 837 926 1006 767 237 589 411 44 9 4 6 2 2 2 2 3 4 7 8 34
0 0 0 0 0 0 0 0 0 1 4 5 6 4 1 0 34 108 289 412 568 474 436 550 891 923 1240 321 1031 747 386 42 5 6 5 4 2 3 4 5 6 4 3
0 0 0 0 0 0 0 0 0 0 0 0 0 2 0 3 21 177 240 381 474 516 528 555 925 909 1115 785 807 798 703 465 370 3 7 7 5 5 5 6 5 5 3
0 0 0 0 0 0 0 0 0 0 0 0 0 0 0 0 1 97 240 402 535 434 545 619 836 999 854 1173 1039 895 703 590 410 8 3 7 3 6 5 5 6 4 4
CIN
-148 -72 -6 -5 -1 -0 -0 -0 -0 -2 -0 -0 -0 -1 -0 -0 -0 -0 -0 -0 -2 -17 -36 -23 -0 -0 -2 -148 -0 -0 -0 -0 -0 -0 -0 -0 -0 -0 -0 -0 -0 -0 -0
-150 -117 -0 -0 -0 -0 -0 -0 -0 -0 -1 -0 -0 -0 -0 -0 -0 -0 -0 -0 -0 -10 -31 -28 -0 -0 -1 -147 -0 -0 -0 -0 -0 -0 -0 -9 -50 -0 -0 -0 -0 -0 -0
-135 -137 -27 -0 -0 -0 -0 -0 -0 -0 -4 -0 -0 -0 -0 -2 -3 -0 -0 -0 -0 -20 -35 -16 -0 -0 -0 -121 -0 -0 -0 -0 -0 -0 -0 -0 -0 -0 -0 -0 -0 -0 -0
-119 -111 -36 -0 -0 -0 -0 -2 -0 -0 -1 -0 -0 -0 -0 -1 -4 -0 -1 -0 -0 -8 -26 -5 -0 -0 -0 -177 -0 -0 -0 -0 -0 -0 -0 -0 -0 -0 -0 -0 -0 -0 -0
-78 -71 -10 -0 -0 -0 -2 -2 -2 -2 -2 -0 -0 -0 -0 -0 -9 -12 -0 -0 -0 -3 -33 -11 -4 -7 -12 -118 -0 -0 -0 -0 -0 -2 -0 -0 -0 -0 -0 -0 -0 -0 -0
-58 -36 -11 -0 -0 -0 -1 -5 -1 -3 -2 -0 -0 -0 -0 -0 -5 -19 -5 -0 -0 -0 -26 -39 -8 -8 -13 -42 -0 -183 -0 -0 -0 -0 -0 -0 -2 -0 -0 -0 -0 -0 -0
-43 -20 -3 -0 -0 -0 -0 -0 -0 -2 -1 -0 -0 -0 -0 -0 -0 -2 -8 -0 -0 -0 -7 -37 -32 -24 -20 -0 -10 -0 -0 -0 -0 -0 -0 -0 -0 -0 -0 -0 -0 -0 -0
-22 -11 -4 -0 -0 -0 -0 -0 -0 -0 -0 -0 -0 -0 -0 -0 -0 -0 -0 -1 -0 -0 -0 -12 -20 -29 -4 -0 -116 -56 -0 -0 -0 -0 -0 -0 -0 -0 -0 -0 -0 -0 -0
-23 -13 -5 -0 -0 -0 -0 -0 -0 -0 -0 -0 -0 -0 -0 -1 -0 -0 -0 -0 -0 -0 -0 -0 -0 -14 -0 -0 -22 -63 -0 -0 -0 -0 -0 -0 -0 -0 -0 -0 -0 -0 -0
-17 -6 -0 -0 -0 -0 -0 -8 -1 -0 -0 -0 -0 -0 -2 -3 -3 -2 -1 -0 -0 -0 -0 -0 -0 -0 -13 -0 -0 -10 -15 -0 -0 -0 -0 -0 -0 -0 -0 -0 -1 -0 -0
-15 -2 -0 -0 -0 -0 -0 -0 -4 -1 -0 -1 -3 -4 -0 -0 -0 -0 -2 -3 -1 -1 -0 -0 -0 -0 -0 -0 -0 -0 -31 -0 -0 -0 -0 -12 -9 -0 -0 -0 -0 -0 -0
-72 -132 -57 -119 -47 -0 -0 -0 -0 -0 -0 -0 -0 -0 -0 -0 -0 -0 -9 -11 -1 -0 -0 -0 -0 -0 -0 -0 -0 -2 -0 -0 -0 -0 -0 -11 -0 -0 -0 -0 -0 -0 -0
-0 -0 -0 -0 -197 -25 -8 -0 -0 -0 -0 -0 -0 -0 -0 -0 -0 -0 -0 -0 -0 -3 -0 -1 -0 -0 -0 -0 -0 -0 -0 -28 -0 -0 -16 -9 -0 -0 -0 -0 -0 -0 -0
-0 -0 -0 -0 -0 -0 -122 -133 -20 -1 -0 -0 -0 -0 -0 -0 -0 -0 -0 -0 -0 -0 -0 -0 -0 -0 -0 -0 -0 -0 -1 -4 -27 -0 -9 -16 -5 -0 -7 -2 -0 -0 -0
-0 -0 -0 -0 -0 -0 -0 -0 -0 -90 -59 -25 -10 -0 -0 -0 -0 -0 -0 -0 -0 -0 -0 -0 -0 -0 -0 -0 -0 -0 -0 -5 -17 -4 -7 -17 -6 -5 -0 -6 -1 -1 -0
-0 -0 -0 -0 -0 -0 -0 -0 -0 -0 -61 -135 -31 -8 -0 -0 -0 -0 -0 -0 -0 -0 -0 -0 -0 -0 -0 -0 -0 -0 -0 -1 -1 -0 -3 -38 -11 -4 -2 -0 -0 -0 -1
-0 -0 -0 -0 -0 -0 -0 -0 -0 -0 -223 -195 -160 -126 -67 -4 -0 -0 -0 -0 -0 -0 -0 -0 -0 -0 -0 -0 -0 -0 -0 -0 -0 -0 -3 -13 -4 -10 -3 -0 -2 -0 -1
-0 -0 -0 -0 -0 -0 -0 -0 -0 -0 -0 -137 -169 -158 -140 -139 -128 -2 -0 -0 -0 -0 -0 -0 -0 -0 -0 -0 -0 -0 -2 -0 -0 -0 -1 -13 -3 -2 -7 -3 -9 -2 -0
-0 -0 -0 -0 -0 -0 -0 -0 -0 -0 -0 -0 -45 -163 -162 -149 -117 -83 -21 -3 -3 -0 -0 -0 -0 -0 -0 -0 -0 -0 -0 -0 -0 -0 -15 -20 -1 -13 -8 -3 -9 -6 -2
-0 -0 -0 -0 -0 -0 -0 -0 -0 -0 -0 -0 -0 -0 -0 -21 -139 -129 -76 -10 -0 -0 -1 -0 -0 -0 -0 -41 -0 -0 -3 -0 -0 -0 -0 -6 -23 -43 -17 -1 -0 -1 -5
-0 -0 -0 -0 -0 -0 -0 -0 -0 -0 -0 -0 -0 -0 -0 -0 -92 -138 -153 -72 -22 -0 -0 -0 -5 -0 -9 -8 -0 -12 -18 -0 -0 -0 -0 -1 -0 -6 -16 -0 -0 -5 -7
-0 -0 -0 -0 -0 -0 -0 -0 -0 -0 -0 -0 -0 -0 -0 -0 -142 -63 -44 -115 -52 -8 -0 -0 -0 -7 -13 -23 -2 -44 -16 -0 -0 -0 -8 -15 -11 -5 -2 -3 -0 -11 -25
-0 -0 -0 -0 -0 -0 -0 -0 -0 -0 -0 -0 -0 -0 -0 -0 -42 -54 -46 -18 -53 -8 -1 -0 -0 -0 -5 -67 -1 -0 -8 -6 -0 -0 -0 -0 -0 -0 -0 -0 -35 -9 -13
-0 -0 -0 -0 -0 -0 -0 -0 -0 -0 -0 -0 -0 -0 -0 -0 -82 -36 -8 -0 -0 -0 -9 -8 -0 -1 -0 -49 -0 -0 -2 -67 -0 -0 -0 -0 -0 -0 -0 -0 -0 -0 -0
-0 -0 -0 -0 -0 -0 -0 -0 -0 -0 -0 -0 -0 -0 -0 -70 -118 -31 -15 -5 -0 -0 -14 -14 -0 -4 -0 -0 -8 -0 -0 -0 -0 -0 -0 -0 -0 -0 -0 -0 -0 -0 -0
-0 -0 -0 -0 -0 -0 -0 -0 -0 -0 -0 -0 -0 -0 -0 -0 -0 -38 -7 -16 -0 -2 -14 -7 -0 -0 -1 -0 -0 -0 -0 -5 -3 -96 -0 -0 -0 -0 -0 -0 -0 -0 -0
Wind_Speed
8 14 14 14 13 12 10 10 12 10 8 8 9 7 6 5 3 7 8 8 8 8 7 7 8 9 11 11 11 10 10 10 10 11 10 10 13 14 15 14 15 14 14
11 14 13 13 11 11 11 8 11 10 8 6 9 7 6 5 3 4 8 8 7 7 7 7 8 8 9 10 10 10 10 10 10 10 7 5 12 13 14 13 13 14 13
10 12 15 12 12 12 12 11 11 10 8 7 7 6 5 5 4 2 7 9 7 7 7 7 7 6 8 8 9 9 9 9 9 5 5 8 9 12 13 13 13 14 15
9 11 13 14 12 11 13 12 13 11 9 8 8 8 7 5 5 4 4 7 6 6 6 6 6 5 7 7 7 8 8 8 6 7 7 8 8 13 14 13 15 16 16
8 10 9 13 11 10 10 9 13 12 9 9 9 9 9 8 7 6 5 7 7 6 6 6 5 4 5 5 6 7 7 5 1 2 8 8 7 12 12 14 14 14 15
7 9 13 11 10 10 9 8 9 10 9 8 9 10 11 10 9 8 7 6 7 7 7 7 6 5 4 5 5 5 5 2 6 6 6 6 11 11 12 12 13 13 15
6 7 10 11 12 11 10 10 8 9 9 9 10 11 11 11 10 10 8 7 7 7 7 7 7 6 5 6 5 4 4 1 4 5 6 6 10 9 10 11 12 14 15
6 5 6 11 10 10 11 11 11 10 10 11 12 12 11 13 13 11 10 8 8 9 8 8 8 7 5 10 7 5 3 3 1 5 5 6 8 9 9 11 12 13 12
3 4 5 7 11 10 11 12 10 11 11 12 12 13 12 12 11 12 12 11 11 9 10 9 9 8 7 8 8 7 5 2 3 4 3 5 6 7 8 9 11 11 13
2 2 3 5 6 7 9 12 10 11 12 12 12 11 11 10 11 11 11 12 11 11 12 11 10 10 10 9 8 8 6 5 3 1 1 6 5 6 7 9 9 11 11
2 4 5 6 6 7 8 6 9 12 12 12 12 13 11 11 11 13 12 9 13 13 13 13 11 12 11 9 9 8 9 6 5 2 0 4 3 4 5 7 8 10 11
8 8 9 10 12 9 7 9 9 10 8 9 9 12 9 12 11 8 6 8 12 14 13 12 12 11 9 9 9 8 8 6 5 4 2 4 2 3 5 5 8 8 10
9 9 11 11 10 8 8 6 5 5 7 7 12 11 10 9 8 9 8 7 10 14 10 12 10 9 12 9 7 8 9 7 5 4 6 6 4 3 4 4 6 7 8
10 11 12 13 12 11 5 6 6 4 7 8 10 12 9 7 10 9 7 8 8 7 10 9 6 10 11 12 11 10 10 8 6 4 7 7 6 5 5 5 5 5 7
11 12 12 12 13 12 10 7 5 6 6 7 8 12 8 10 9 8 9 8 10 7 9 9 10 10 11 13 11 11 11 11 9 5 3 6 6 6 6 5 6 5 6
11 12 12 12 12 11 9 10 8 8 8 7 5 7 11 10 10 9 9 8 9 8 9 9 10 10 10 11 11 11 12 11 9 7 5 4 6 7 6 6 5 5 6
11 13 14 12 12 11 11 10 8 8 8 7 7 8 10 10 10 11 9 10 10 8 11 10 12 11 10 10 12 11 9 11 9 10 7 4 6 7 7 6 6 5 5
12 13 13 12 14 14 13 10 7 7 7 7 7 7 9 7 9 10 7 8 10 8 8 9 9 7 8 10 9 9 9 10 10 8 7 5 6 5 5 5 5 2 3
11 12 12 13 14 15 13 11 11 10 7 6 6 7 8 9 10 7 7 6 8 8 9 10 10 9 9 6 6 9 8 8 9 7 9 8 7 4 3 6 4 3 2
11 12 13 11 14 14 11 10 9 9 9 9 8 7 9 8 9 9 9 9 7 6 7 8 11 9 10 7 6 7 6 5 6 6 10 8 6 4 4 7 5 5 2
11 12 14 14 14 11 9 10 10 10 11 9 10 12 12 10 10 7 7 10 10 9 10 9 10 10 6 8 4 3 3 4 8 6 6 6 4 4 3 4 3 2 2
13 14 14 15 14 11 9 9 9 10 11 11 9 10 14 12 11 11 9 7 8 7 9 9 9 6 7 9 6 5 3 1 4 4 2 6 7 3 1 2 4 4 3
13 13 13 14 14 12 13 9 9 10 9 10 10 11 9 14 13 10 12 9 9 8 7 9 10 13 8 7 13 6 4 4 3 3 6 3 7 6 6 6 5 5 3
12 11 11 11 13 12 14 11 13 11 12 11 11 11 12 14 14 13 10 11 10 8 9 9 9 10 11 9 9 8 9 10 5 3 3 5 7 6 7 5 5 5 3
10 10 10 11 11 11 12 12 11 12 11 11 11 15 15 12 14 15 14 13 11 7 8 10 11 11 10 9 10 8 8 9 10 6 4 3 5 5 5 5 5 3 3
9 9 9 10 10 10 11 13 14 14 15 13 14 13 11 11 10 12 15 12 12 11 9 10 11 12 11 11 11 12 11 10 10 9 5 4 6 4 6 5 4 3 3
Wind_Direction
177 163 172 174 169 164 164 170 157 147 148 146 139 148 144 136 113 156 131 123 111 106 105 101 92 69 78 68 62 62 60 57 53 45 43 44 47 36 41 32 12 31 16
160 169 165 170 171 173 172 182 156 149 153 157 145 148 142 140 140 115 140 129 120 114 111 115 99 78 87 76 71 72 68 62 49 39 358 139 59 44 41 34 33 30 23
167 172 172 174 178 184 177 179 166 155 159 165 158 158 163 161 151 161 158 146 138 127 120 124 103 83 99 85 78 68 61 61 46 19 297 54 50 42 42 28 40 32 29
161 170 177 170 186 189 184 185 168 162 165 173 179 173 174 178 175 187 186 149 142 128 125 130 122 101 109 96 90 86 70 52 36 323 38 25 58 48 35 30 35 30 20
158 173 158 169 187 190 194 178 169 171 171 189 188 190 188 188 189 192 214 175 155 145 140 143 136 121 109 107 98 92 83 75 10 17 51 26 27 49 40 33 32 35 30
151 167 131 176 191 182 188 187 185 176 176 203 209 205 205 202 196 197 213 209 167 164 160 155 159 156 145 149 120 108 90 72 269 56 49 75 58 48 45 41 30 34 33
152 168 162 188 185 190 193 198 208 193 189 212 222 230 230 215 207 205 207 208 189 183 178 173 176 177 183 182 147 117 96 2 15 56 62 51 58 53 50 47 30 39 31
145 172 174 178 194 197 204 209 210 209 215 222 230 235 243 222 217 212 211 212 219 208 192 189 192 196 199 173 161 157 144 280 148 62 62 66 56 47 48 53 42 39 31
115 168 184 204 193 209 215 213 223 230 225 230 240 234 237 224 226 222 216 215 217 223 209 200 201 201 197 179 182 179 170 269 298 54 63 75 74 68 65 52 43 31 40
156 212 235 234 236 233 221 207 228 242 238 235 235 246 239 244 246 238 236 222 228 224 214 211 210 205 210 205 207 194 183 218 214 164 59 73 82 84 62 59 49 42 41
347 329 308 281 266 262 266 258 217 236 249 251 244 237 240 243 239 224 228 233 214 229 230 225 215 214 211 221 221 208 193 227 200 192 150 88 92 92 83 68 53 47 42
14 1 358 340 323 287 265 269 256 254 246 246 245 252 238 241 242 244 265 207 228 230 235 238 230 221 217 230 196 194 230 216 218 196 139 145 161 120 93 70 60 53 48
18 17 12 1 345 320 318 256 270 278 262 254 251 248 252 262 255 223 235 225 227 214 233 212 223 227 228 233 240 218 225 221 216 205 129 162 189 168 121 94 82 54 53
25 15 10 9 3 358 347 360 338 301 300 279 253 253 246 247 252 251 236 240 239 234 230 230 225 228 236 243 233 229 241 222 223 211 148 174 194 192 159 143 111 90 60
21 16 14 12 4 358 355 356 344 327 310 303 307 284 251 250 250 253 246 233 245 238 246 236 221 229 232 238 237 236 231 238 224 218 164 172 187 214 185 170 128 112 80
18 17 8 9 7 360 358 351 340 336 330 315 306 293 289 270 262 248 242 241 249 222 233 236 241 232 235 236 238 235 239 238 233 219 161 155 176 220 214 178 155 131 99
18 12 13 5 5 1 354 347 337 331 323 321 316 316 319 308 269 264 258 248 242 238 233 235 238 236 228 231 235 239 230 243 223 226 180 162 179 186 222 196 184 152 130
10 9 3 359 358 354 348 343 333 328 319 316 314 305 302 294 310 291 254 258 264 256 239 231 234 232 228 228 225 226 227 236 234 220 181 167 190 172 189 207 191 178 158
4 0 358 355 353 348 343 337 333 324 325 316 305 315 324 307 295 273 281 256 255 252 233 227 221 213 205 218 237 233 215 221 221 198 177 180 159 158 179 174 145 183 193
358 355 353 354 352 343 334 333 333 327 335 325 322 314 315 308 302 291 284 257 237 241 248 243 226 212 210 178 185 220 213 219 222 193 185 169 170 165 191 217 177 132 89
359 356 350 345 344 340 338 333 329 325 324 317 326 320 318 314 303 295 283 286 268 239 224 229 228 208 195 173 141 121 59 208 217 204 183 160 147 169 180 152 150 109 95
352 355 349 349 345 343 337 330 320 312 311 309 305 310 317 312 307 298 281 271 287 280 257 229 205 197 195 180 169 151 152 101 45 24 123 161 155 130 126 125 135 85 45
350 349 345 346 343 343 345 336 331 321 311 310 310 311 313 310 300 286 283 274 262 266 255 239 217 207 195 191 182 155 161 169 141 15 42 55 104 101 81 67 62 58 47
345 340 345 343 341 344 340 337 337 326 323 324 311 309 309 307 303 294 286 273 263 245 252 246 228 223 206 182 194 223 201 140 167 145 37 50 71 65 80 83 67 51 32
332 332 337 336 342 350 350 348 340 335 319 314 311 310 310 305 306 300 293 280 281 271 250 245 236 218 227 183 192 181 199 186 180 146 135 117 71 53 62 58 56 31 29
315 317 325 327 334 347 345 344 343 340 333 325 316 307 305 306 298 296 292 290 284 288 261 241 236 222 216 211 194 189 182 178 178 155 131 126 115 53 53 45 33 8 7